Location: ????
(55.5675°N, 37.6272°E)
Time: 20:38:00
(UTC+00:00)

Aureole 3 - Pass Details

Date: 14 April 2026
Orbit: 373 x 1024 km, 82.5° (Epoch: 16 May)

Event Time Altitude Azimuth Distance (km) Brightness Sun altitude
Rises 17:43:13 0° 351° (N) 2,685 7.5 -9.7°
Reaches altitude 10° 17:45:14 10° 356° (N) 1,880 6.6 -10.0°
Maximum altitude 17:49:19 54° 74° (ENE) 794 3.9 -10.4°
Enters shadow 17:53:56 12° 151° (SSE) 2,144 5.8 -11.0°
